SCP
0 0 0 0 0 0 0 0 0 0 0 0 0 0 0 0 0 0 0 0 0 0 0 0 0 0 0 0 0 0 0 0 0 0 0 0 0 0 0 0 0 0 0
0 0 0 0 0 0 0 0 0 0 0 0 0 0 0 0 0 0 0 0 0 0 0 0 0 0 0 0 0 0 0 0 0 0 0 0 0 0 0 0 0 0 0
0 0 0 0 0 0 0 0 0 0 0 0 0 0 0 0 0 0 0 0 0 0 0 0 0 0 0 0 0 0 0 0 0 0 0 0 0 0 0 0 0 0 0
0 0 0 0 0 0 0 0 0 0 0 0 0 0 0 0 0 0 0 0 0 0 0 0 0 0 0 0 0 0 0 0 0 0 0 0 0 0 0 0 0 0 0
0 0 0 0 0 0 0 0 0 0 0 0 0 0 0 0 0 0 0 0 0 0 0 0 0 0 0 0 0 0 0 0 0 0 0 0 0 0 0 0 0 0 0
0 0 0 0 0 0 0 0 0 0 0 0 0 0 0 0 0 -0 -0 0 0 0 0 0 0 0 0 0 0 0 0 0 0 0 0 0 0 0 0 0 0 0 0
0 0 0 0 0 0 0 0 0 0 0 0 0 0 0 0 0 -0 -0 0 0 0 0 0 0 0 0 0 0 0 0 0 0 0 0 0 0 0 0 0 0 0 0
0 0 0 0 0 0 0 0 0 0 0 0 0 0 0 0 0 -0 -0 0 0 0 0 0 0 0 0 0 0 0 0 0 0 0 0 0 0 0 0 0 0 0 0
-0 0 0 0 0 0 0 0 0 0 0 0 0 0 0 0 0 -0 -0 0 0 0 0 0 0 0 0 0 0 0 0 0 0 0 0 0 0 0 0 0 0 0 0
0 0 0 0 0 0 0 0 0 0 0 0 0 0 0 0 0 0 -0 0 0 0 0 0 0 0 0 0 0 0 0 0 0 0 0 0 0 0 0 0 0 0 0
0 0 0 0 0 0 0 0 0 0 0 0 0 0 0 0 0 0 -0 0 0 0 0 0 0 0 0 0 0 0 0 0 0 0 0 0 0 0 0 0 0 0 0
0 0 0 0 0 0 0 0 0 0 0 0 0 0 0 0 0 -0 -0 0 0 0 0 0 0 0 0 0 0 0 0 0 0 0 0 0 0 0 0 0 0 0 0
-0 0 -0 0 0 0 0 0 0 0 0 0 0 0 0 0 0 0 -0 0 0 0 0 0 0 0 0 0 0 0 0 0 0 0 0 0 0 0 0 0 0 0 0
0 0 0 -0 0 0 0 0 0 0 0 0 0 0 0 0 0 -0 0 0 0 0 0 0 0 0 0 0 0 0 0 0 0 0 0 0 0 0 0 0 0 0 -0
0 -0 -0 0 0 0 0 0 0 0 0 0 0 0 0 0 -0 0 0 0 0 0 0 0 0 0 0 0 0 0 0 0 0 0 0 0 0 0 0 0 0 0 0
-0 -0 -0 -0 0 0 0 0 0 0 0 0 0 0 0 0 0 0 0 0 0 0 0 0 0 0 0 0 0 0 0 0 0 0 0 0 0 0 0 0 0 0 0
-0 -0 0 0 0 0 0 0 0 0 0 0 0 -0 0 0 0 0 0 0 0 0 0 0 0 0 0 0 0 0 0 0 0 0 0 0 0 0 0 0 0 0 0
0 0 0 0 0 0 0 0 0 0 0 0 -0 0 0 0 0 0 0 0 0 0 0 0 0 0 0 0 0 0 0 0 0 0 0 0 0 0 0 0 0 0 0
0 0 0 0 0 0 0 0 0 0 0 0 0 0 0 0 0 0 0 0 0 0 0 0 0 0 0 0 0 0 0 0 0 0 0 0 0 0 0 0 0 0 0
0 0 0 0 0 0 0 0 0 0 0 0 0 0 0 0 0 0 0 0 0 0 0 0 0 0 0 0 0 0 0 0 0 0 0 0 0 0 0 0 0 0 0
0 0 0 0 0 0 0 0 0 0 0 0 0 0 0 0 0 0 0 0 0 0 0 0 0 0 0 0 0 0 0 0 0 0 0 0 0 0 0 0 0 0 0
0 0 0 0 0 0 0 0 0 0 0 0 0 0 0 0 0 0 0 0 0 0 0 0 0 0 0 0 0 0 0 0 0 0 0 0 0 0 0 0 0 -0 -0
0 0 0 0 0 0 0 0 0 0 -0 -0 0 0 0 0 0 0 0 0 0 0 0 0 0 0 0 0 0 0 0 0 0 0 0 0 0 0 0 0 -0 0 0
0 -0 0 0 0 0 0 0 0 -0 -0 -0 0 0 0 0 0 0 0 0 0 0 0 0 0 0 0 0 0 0 0 0 0 0 0 0 0 0 0 0 0 0 0
0 0 0 0 0 0 0 0 -0 -0 -0 0 0 0 0 0 0 0 0 0 0 0 0 0 0 0 0 0 0 0 0 0 0 0 0 0 0 0 0 0 0 0 0
-0 -0 0 0 0 0 0 -0 -0 -0 0 0 -0 0 0 0 0 0 0 0 0 0 0 0 0 0 0 0 0 0 0 0 0 0 0 0 0 0 0 0 0 0 0
Wind_Speed_500mb
19 20 19 18 27 33 39 36 39 37 37 33 29 25 23 20 23 25 24 22 21 21 16 11 13 14 16 21 28 31 31 32 37 40 34 31 39 43 46 45 45 39 29
21 19 17 26 31 35 37 38 43 45 42 38 34 29 29 25 23 26 28 30 30 27 20 19 17 17 21 29 32 37 35 38 38 42 39 37 37 42 51 50 35 21 25
23 25 21 25 32 36 40 41 42 45 47 44 43 36 33 32 30 26 24 31 35 31 23 21 17 21 29 30 37 41 33 34 34 34 31 32 34 34 35 23 23 23 27
19 24 28 29 30 33 40 45 43 48 50 45 43 40 39 37 33 32 31 28 29 30 26 22 21 28 32 36 38 33 29 22 24 24 31 32 30 29 25 25 27 28 30
21 25 27 31 35 36 38 44 47 50 51 47 47 42 42 42 38 35 38 31 24 22 23 24 27 28 32 37 28 24 21 17 22 24 27 29 30 29 25 25 28 29 29
23 23 30 30 37 40 41 43 48 51 53 50 48 44 42 41 40 37 34 32 29 25 26 23 23 29 35 28 24 20 18 19 13 22 29 30 29 25 24 27 28 35 41
23 23 30 32 33 43 41 46 48 51 53 57 49 47 42 47 38 35 37 32 31 29 27 26 28 33 29 22 20 19 23 19 23 28 25 27 29 30 33 32 31 36 35
22 18 25 33 35 36 44 54 47 54 56 58 46 49 48 46 38 39 37 35 41 38 32 32 33 31 24 20 17 19 24 24 26 26 32 35 31 31 34 33 35 35 34
30 23 13 14 20 30 38 41 55 54 59 64 60 53 48 43 34 41 40 38 38 37 35 32 31 29 22 18 22 18 17 16 27 35 40 31 29 31 31 34 29 28 32
35 30 19 21 26 33 36 38 50 56 63 66 64 55 46 41 44 34 34 35 37 37 33 28 26 21 19 22 21 22 18 18 29 35 28 24 24 24 26 24 28 29 31
33 34 33 25 25 30 33 35 42 50 59 68 66 56 45 37 27 30 24 32 37 33 28 27 18 18 24 21 21 26 23 24 26 27 26 24 21 22 25 29 28 30 33
35 36 36 33 28 32 38 38 38 43 53 63 69 48 41 35 34 28 34 33 36 32 27 20 19 23 12 10 19 22 25 22 19 22 24 26 26 26 27 27 29 31 32
36 40 41 39 34 32 35 35 32 41 46 59 53 43 40 28 31 33 40 33 29 25 22 18 15 4 7 12 12 19 23 20 20 24 26 26 28 28 31 32 30 29 32
41 40 44 43 42 33 25 28 22 28 42 49 48 47 32 30 28 42 36 28 28 21 15 7 5 7 10 14 20 24 25 22 22 26 28 30 31 33 34 32 32 35 40
41 41 43 45 45 45 27 21 28 34 27 45 46 32 22 31 42 32 27 25 20 14 5 4 9 11 15 17 19 21 23 24 25 27 31 36 38 37 32 32 37 41 40
39 45 44 46 45 46 33 22 29 23 27 40 34 21 30 34 28 21 22 17 11 4 3 6 12 14 16 18 22 27 27 24 23 26 33 37 35 31 35 39 37 37 40
47 46 48 46 44 43 38 33 35 33 36 38 37 33 30 24 26 22 16 11 6 5 6 11 14 14 16 20 24 20 17 16 27 27 30 27 31 35 37 37 38 37 36
58 51 48 45 45 41 42 34 33 41 51 47 37 36 29 24 22 15 9 6 9 11 14 10 13 14 16 18 16 17 20 22 22 24 28 31 33 34 36 37 35 34 31
48 49 45 45 44 42 38 30 27 42 51 46 44 35 28 27 19 9 5 10 9 9 7 9 12 12 14 14 18 19 21 23 33 34 33 33 34 35 35 32 31 31 27
46 40 43 42 41 44 36 27 21 46 51 45 43 35 36 28 15 7 9 6 4 6 8 10 10 12 14 16 19 21 24 28 31 33 34 35 35 33 32 30 26 22 19
39 39 45 35 37 35 28 24 26 53 55 49 47 37 29 21 14 8 6 5 4 7 7 8 11 13 16 18 20 24 28 31 33 35 37 35 32 30 27 25 21 20 22
37 35 36 32 33 26 26 21 54 48 45 44 39 35 29 20 12 10 10 5 7 9 9 10 12 14 17 23 30 32 33 35 37 40 40 36 33 30 23 18 16 18 15
37 32 32 28 23 18 21 60 56 49 42 39 37 34 25 17 14 13 8 11 11 9 13 14 12 14 23 33 36 39 42 44 47 45 40 39 32 21 13 9 9 9 10
31 34 28 32 16 10 66 55 50 42 39 38 34 29 23 19 15 11 10 9 9 11 12 13 18 24 30 34 37 39 42 44 44 39 36 29 15 12 11 9 7 6 8
36 30 30 28 19 31 63 63 50 35 36 36 34 29 23 17 12 11 7 8 8 10 11 15 22 27 32 37 37 38 39 38 36 34 24 10 13 15 14 10 10 12 12
31 35 30 33 26 77 68 65 45 37 37 35 30 25 19 13 10 5 5 6 7 8 12 19 24 30 35 38 36 34 32 32 32 21 9 12 13 14 12 9 12 9 9
Wind_Direction_500mb
290 290 275 262 228 224 227 231 235 235 235 236 237 241 236 238 237 228 226 215 210 207 217 233 253 273 291 297 302 300 298 291 289 302 299 301 307 316 307 306 310 310 305
289 282 276 257 236 231 229 229 228 234 233 238 233 239 242 240 240 231 231 226 220 220 235 245 256 274 290 298 299 303 299 298 293 300 306 311 311 309 315 313 314 311 304
286 283 278 258 243 239 236 237 234 232 229 236 234 237 238 239 235 232 235 235 230 227 235 243 255 279 292 297 301 306 303 299 300 309 317 315 314 319 322 326 326 317 320
269 275 273 264 261 256 244 239 236 233 233 239 239 241 239 235 233 234 237 240 234 228 231 241 261 282 292 299 306 310 310 308 311 313 313 313 318 323 330 327 324 318 319
273 269 272 265 263 260 254 243 240 238 236 241 240 236 236 236 233 239 239 242 234 223 232 255 274 281 289 299 305 307 315 317 315 318 322 320 321 325 325 324 324 327 328
293 277 276 272 261 261 261 248 242 240 239 238 241 231 232 234 241 237 236 243 238 239 251 267 278 283 288 294 308 317 315 320 326 332 329 321 324 321 321 325 330 331 329
288 282 286 286 274 268 263 253 246 240 234 233 236 227 222 226 220 222 234 247 252 255 261 268 276 284 288 291 315 316 323 311 323 334 328 323 320 320 322 320 323 332 329
350 294 276 292 291 281 272 256 251 244 238 235 226 223 230 227 216 226 241 253 256 258 264 264 272 281 283 294 314 312 316 316 325 329 323 321 316 317 320 319 317 314 323
9 358 338 308 301 290 292 277 255 247 238 228 223 232 226 228 228 243 233 242 255 262 265 263 275 281 281 298 308 288 302 306 325 329 329 321 316 321 314 314 309 306 311
5 5 337 313 297 293 295 291 277 258 244 231 227 230 227 229 219 225 225 246 256 258 261 266 282 273 285 300 278 282 299 300 320 327 327 328 333 337 335 315 306 311 308
353 347 344 322 302 305 301 303 290 276 256 237 230 226 224 210 212 227 241 245 251 257 267 281 274 283 295 287 269 280 291 295 319 329 333 338 330 324 326 322 321 317 309
349 343 340 340 320 303 296 296 302 296 266 242 224 214 209 190 215 211 230 247 255 258 273 273 285 297 280 267 277 292 287 290 306 325 337 340 338 327 316 315 315 313 314
342 343 334 330 325 314 295 300 297 295 268 237 214 201 189 211 216 222 229 250 255 266 269 284 300 262 280 289 291 301 286 277 293 316 327 332 329 323 324 319 321 310 310
332 334 332 326 325 316 294 294 290 287 257 230 194 201 190 198 218 227 245 245 248 252 277 293 284 288 296 282 300 296 283 268 281 302 315 318 322 320 314 315 313 310 307
326 322 326 326 324 324 304 309 299 281 267 211 200 183 188 214 212 246 251 248 248 255 249 304 300 289 295 298 296 288 285 280 283 296 307 312 313 311 308 307 307 306 303
318 317 315 321 319 323 314 301 297 266 229 186 183 178 194 197 227 239 223 235 240 222 276 287 303 290 296 309 303 301 297 292 289 293 303 307 307 304 306 308 308 304 302
311 305 305 306 315 315 318 305 286 249 207 181 178 175 201 223 229 219 216 211 219 259 278 302 291 286 304 311 310 307 308 305 308 307 303 305 305 304 309 307 308 306 304
298 291 291 295 306 307 318 288 284 246 181 181 187 187 205 220 195 201 205 244 253 280 298 289 284 299 309 309 308 311 315 315 313 311 309 306 305 305 307 308 308 308 307
289 280 284 289 302 304 303 299 288 220 196 183 182 191 198 182 181 190 244 243 274 288 281 282 297 305 306 311 310 317 319 313 314 313 311 308 306 305 304 304 306 309 317
279 274 279 284 297 303 299 289 266 215 174 156 183 190 186 177 171 203 237 250 288 277 286 305 307 307 311 308 314 320 316 316 316 315 311 309 307 303 302 302 301 296 301
269 276 275 273 294 303 305 271 255 168 149 163 181 188 175 169 184 193 203 260 270 289 313 321 315 311 309 317 323 318 317 319 318 315 315 313 309 306 301 298 295 288 297
257 271 264 264 292 297 300 175 152 154 163 171 183 181 179 196 202 207 227 242 291 313 322 322 314 306 315 321 319 319 320 321 321 320 318 315 312 307 300 299 292 287 301
243 253 257 273 300 289 189 153 153 162 175 180 190 187 194 202 204 217 222 288 310 327 318 309 316 323 326 325 323 323 322 322 322 322 324 328 328 326 319 306 306 316 325
245 248 236 251 269 267 160 157 167 178 182 191 191 194 205 200 209 225 270 304 327 322 312 325 336 332 330 328 325 324 322 323 324 329 332 335 354 11 7 7 2 356 20
243 230 220 226 226 181 159 166 178 183 190 192 189 193 195 203 220 252 299 323 318 310 339 349 341 338 336 331 327 325 324 326 332 334 341 29 30 27 36 48 75 71 38
251 239 223 214 195 163 165 175 188 187 184 184 187 189 192 209 243 284 314 297 301 349 358 342 339 338 334 334 333 333 335 340 344 350 68 66 63 41 38 61 45 24 46
Wind_Speed_850mb
19 20 19 18 27 33 39 36 39 37 37 33 29 25 23 20 23 25 24 22 21 21 16 11 13 14 16 21 28 31 31 32 37 40 34 31 39 43 46 45 45 39 29
21 19 17 26 31 35 37 38 43 45 42 38 34 29 29 25 23 26 28 30 30 27 20 19 17 17 21 29 32 37 35 38 38 42 39 37 37 42 51 50 35 21 25
23 25 21 25 32 36 40 41 42 45 47 44 43 36 33 32 30 26 24 31 35 31 23 21 17 21 29 30 37 41 33 34 34 34 31 32 34 34 35 23 23 23 27
19 24 28 29 30 33 40 45 43 48 50 45 43 40 39 37 33 32 31 28 29 30 26 22 21 28 32 36 38 33 29 22 24 24 31 32 30 29 25 25 27 28 30
21 25 27 31 35 36 38 44 47 50 51 47 47 42 42 42 38 35 38 31 24 22 23 24 27 28 32 37 28 24 21 17 22 24 27 29 30 29 25 25 28 29 29
23 23 30 30 37 40 41 43 48 51 53 50 48 44 42 41 40 37 34 32 29 25 26 23 23 29 35 28 24 20 18 19 13 22 29 30 29 25 24 27 28 35 41
23 23 30 32 33 43 41 46 48 51 53 57 49 47 42 47 38 35 37 32 31 29 27 26 28 33 29 22 20 19 23 19 23 28 25 27 29 30 33 32 31 36 35
22 18 25 33 35 36 44 54 47 54 56 58 46 49 48 46 38 39 37 35 41 38 32 32 33 31 24 20 17 19 24 24 26 26 32 35 31 31 34 33 35 35 34
30 23 13 14 20 30 38 41 55 54 59 64 60 53 48 43 34 41 40 38 38 37 35 32 31 29 22 18 22 18 17 16 27 35 40 31 29 31 31 34 29 28 32
35 30 19 21 26 33 36 38 50 56 63 66 64 55 46 41 44 34 34 35 37 37 33 28 26 21 19 22 21 22 18 18 29 35 28 24 24 24 26 24 28 29 31
33 34 33 25 25 30 33 35 42 50 59 68 66 56 45 37 27 30 24 32 37 33 28 27 18 18 24 21 21 26 23 24 26 27 26 24 21 22 25 29 28 30 33
35 36 36 33 28 32 38 38 38 43 53 63 69 48 41 35 34 28 34 33 36 32 27 20 19 23 12 10 19 22 25 22 19 22 24 26 26 26 27 27 29 31 32
36 40 41 39 34 32 35 35 32 41 46 59 53 43 40 28 31 33 40 33 29 25 22 18 15 4 7 12 12 19 23 20 20 24 26 26 28 28 31 32 30 29 32
41 40 44 43 42 33 25 28 22 28 42 49 48 47 32 30 28 42 36 28 28 21 15 7 5 7 10 14 20 24 25 22 22 26 28 30 31 33 34 32 32 35 40
41 41 43 45 45 45 27 21 28 34 27 45 46 32 22 31 42 32 27 25 20 14 5 4 9 11 15 17 19 21 23 24 25 27 31 36 38 37 32 32 37 41 40
39 45 44 46 45 46 33 22 29 23 27 40 34 21 30 34 28 21 22 17 11 4 3 6 12 14 16 18 22 27 27 24 23 26 33 37 35 31 35 39 37 37 40
47 46 48 46 44 43 38 33 35 33 36 38 37 33 30 24 26 22 16 11 6 5 6 11 14 14 16 20 24 20 17 16 27 27 30 27 31 35 37 37 38 37 36
58 51 48 45 45 41 42 34 33 41 51 47 37 36 29 24 22 15 9 6 9 11 14 10 13 14 16 18 16 17 20 22 22 24 28 31 33 34 36 37 35 34 31
48 49 45 45 44 42 38 30 27 42 51 46 44 35 28 27 19 9 5 10 9 9 7 9 12 12 14 14 18 19 21 23 33 34 33 33 34 35 35 32 31 31 27
46 40 43 42 41 44 36 27 21 46 51 45 43 35 36 28 15 7 9 6 4 6 8 10 10 12 14 16 19 21 24 28 31 33 34 35 35 33 32 30 26 22 19
39 39 45 35 37 35 28 24 26 53 55 49 47 37 29 21 14 8 6 5 4 7 7 8 11 13 16 18 20 24 28 31 33 35 37 35 32 30 27 25 21 20 22
37 35 36 32 33 26 26 21 54 48 45 44 39 35 29 20 12 10 10 5 7 9 9 10 12 14 17 23 30 32 33 35 37 40 40 36 33 30 23 18 16 18 15
37 32 32 28 23 18 21 60 56 49 42 39 37 34 25 17 14 13 8 11 11 9 13 14 12 14 23 33 36 39 42 44 47 45 40 39 32 21 13 9 9 9 10
31 34 28 32 16 10 66 55 50 42 39 38 34 29 23 19 15 11 10 9 9 11 12 13 18 24 30 34 37 39 42 44 44 39 36 29 15 12 11 9 7 6 8
36 30 30 28 19 31 63 63 50 35 36 36 34 29 23 17 12 11 7 8 8 10 11 15 22 27 32 37 37 38 39 38 36 34 24 10 13 15 14 10 10 12 12
31 35 30 33 26 77 68 65 45 37 37 35 30 25 19 13 10 5 5 6 7 8 12 19 24 30 35 38 36 34 32 32 32 21 9 12 13 14 12 9 12 9 9
Wind_Direction_850mb
290 290 275 262 228 224 227 231 235 235 235 236 237 241 236 238 237 228 226 215 210 207 217 233 253 273 291 297 302 300 298 291 289 302 299 301 307 316 307 306 310 310 305
289 282 276 257 236 231 229 229 228 234 233 238 233 239 242 240 240 231 231 226 220 220 235 245 256 274 290 298 299 303 299 298 293 300 306 311 311 309 315 313 314 311 304
286 283 278 258 243 239 236 237 234 232 229 236 234 237 238 239 235 232 235 235 230 227 235 243 255 279 292 297 301 306 303 299 300 309 317 315 314 319 322 326 326 317 320
269 275 273 264 261 256 244 239 236 233 233 239 239 241 239 235 233 234 237 240 234 228 231 241 261 282 292 299 306 310 310 308 311 313 313 313 318 323 330 327 324 318 319
273 269 272 265 263 260 254 243 240 238 236 241 240 236 236 236 233 239 239 242 234 223 232 255 274 281 289 299 305 307 315 317 315 318 322 320 321 325 325 324 324 327 328
293 277 276 272 261 261 261 248 242 240 239 238 241 231 232 234 241 237 236 243 238 239 251 267 278 283 288 294 308 317 315 320 326 332 329 321 324 321 321 325 330 331 329
288 282 286 286 274 268 263 253 246 240 234 233 236 227 222 226 220 222 234 247 252 255 261 268 276 284 288 291 315 316 323 311 323 334 328 323 320 320 322 320 323 332 329
350 294 276 292 291 281 272 256 251 244 238 235 226 223 230 227 216 226 241 253 256 258 264 264 272 281 283 294 314 312 316 316 325 329 323 321 316 317 320 319 317 314 323
9 358 338 308 301 290 292 277 255 247 238 228 223 232 226 228 228 243 233 242 255 262 265 263 275 281 281 298 308 288 302 306 325 329 329 321 316 321 314 314 309 306 311
5 5 337 313 297 293 295 291 277 258 244 231 227 230 227 229 219 225 225 246 256 258 261 266 282 273 285 300 278 282 299 300 320 327 327 328 333 337 335 315 306 311 308
353 347 344 322 302 305 301 303 290 276 256 237 230 226 224 210 212 227 241 245 251 257 267 281 274 283 295 287 269 280 291 295 319 329 333 338 330 324 326 322 321 317 309
349 343 340 340 320 303 296 296 302 296 266 242 224 214 209 190 215 211 230 247 255 258 273 273 285 297 280 267 277 292 287 290 306 325 337 340 338 327 316 315 315 313 314
342 343 334 330 325 314 295 300 297 295 268 237 214 201 189 211 216 222 229 250 255 266 269 284 300 262 280 289 291 301 286 277 293 316 327 332 329 323 324 319 321 310 310
332 334 332 326 325 316 294 294 290 287 257 230 194 201 190 198 218 227 245 245 248 252 277 293 284 288 296 282 300 296 283 268 281 302 315 318 322 320 314 315 313 310 307
326 322 326 326 324 324 304 309 299 281 267 211 200 183 188 214 212 246 251 248 248 255 249 304 300 289 295 298 296 288 285 280 283 296 307 312 313 311 308 307 307 306 303
318 317 315 321 319 323 314 301 297 266 229 186 183 178 194 197 227 239 223 235 240 222 276 287 303 290 296 309 303 301 297 292 289 293 303 307 307 304 306 308 308 304 302
311 305 305 306 315 315 318 305 286 249 207 181 178 175 201 223 229 219 216 211 219 259 278 302 291 286 304 311 310 307 308 305 308 307 303 305 305 304 309 307 308 306 304
298 291 291 295 306 307 318 288 284 246 181 181 187 187 205 220 195 201 205 244 253 280 298 289 284 299 309 309 308 311 315 315 313 311 309 306 305 305 307 308 308 308 307
289 280 284 289 302 304 303 299 288 220 196 183 182 191 198 182 181 190 244 243 274 288 281 282 297 305 306 311 310 317 319 313 314 313 311 308 306 305 304 304 306 309 317
279 274 279 284 297 303 299 289 266 215 174 156 183 190 186 177 171 203 237 250 288 277 286 305 307 307 311 308 314 320 316 316 316 315 311 309 307 303 302 302 301 296 301
269 276 275 273 294 303 305 271 255 168 149 163 181 188 175 169 184 193 203 260 270 289 313 321 315 311 309 317 323 318 317 319 318 315 315 313 309 306 301 298 295 288 297
257 271 264 264 292 297 300 175 152 154 163 171 183 181 179 196 202 207 227 242 291 313 322 322 314 306 315 321 319 319 320 321 321 320 318 315 312 307 300 299 292 287 301
243 253 257 273 300 289 189 153 153 162 175 180 190 187 194 202 204 217 222 288 310 327 318 309 316 323 326 325 323 323 322 322 322 322 324 328 328 326 319 306 306 316 325
245 248 236 251 269 267 160 157 167 178 182 191 191 194 205 200 209 225 270 304 327 322 312 325 336 332 330 328 325 324 322 323 324 329 332 335 354 11 7 7 2 356 20
243 230 220 226 226 181 159 166 178 183 190 192 189 193 195 203 220 252 299 323 318 310 339 349 341 338 336 331 327 325 324 326 332 334 341 29 30 27 36 48 75 71 38
251 239 223 214 195 163 165 175 188 187 184 184 187 189 192 209 243 284 314 297 301 349 358 342 339 338 334 334 333 333 335 340 344 350 68 66 63 41 38 61 45 24 46